Weather History for Branson, MO

Change the Weather History Date:

Thursday, August 21, 2014

  Actual Average (KHRO) Record (KHRO)
Temperature  
Mean Temperature 86 °F 77 °F  
Max Temperature 98 °F 89 °F 105 °F (1936)
Min Temperature 73 °F 66 °F 47 °F (1956)
Degree Days  
Heating Degree Days 0 0  
Month to date heating degree days 0  
Since 1 June heating degree days 6  
Since 1 July heating degree days 0  
Cooling Degree Days 20 12  
Month to date cooling degree days 284  
Year to date cooling degree days 1102  
Since 1 June cooling degree days 963  
Growing Degree Days 36 (Base 50)    
Moisture  
Dew Point 68 °F    
Average Humidity 69    
Maximum Humidity 88    
Minimum Humidity 32    
Precipitation  
Precipitation 0.00 in 0.10 in 1.37 in (1911)
Month to date precipitation 2.47  
Year to date precipitation 27.85  
Snow  
Snow 0.00 in 0.00 in - ()
Month to date snowfall 0.0  
Since 1 June snowfall 0.0  
Since 1 July snowfall 0.0  
Snow Depth -    
Sea Level Pressure  
Sea Level Pressure 30.04 in    
Wind  
Wind Speed 4 mph (South)    
Max Wind Speed 14 mph    
Max Gust Speed 20 mph    
Visibility 10 miles    
Events      
T = Trace of Precipitation, MM = Missing Value Source: NWS Daily Summary

Daily Weather History Graph

Daily Weather History Graph

Search for Another Location

Airport:

Trip Planner

Search our weather history database for the weather conditions in past years. The results will help you decide how hot, cold, wet, or windy it might be!

Date:

Astronomy

Aug. 21, 2014 Rise Set
Actual Time 6:35 AM CDT 7:55 PM CDT
Civil Twilight 6:08 AM CDT 8:22 PM CDT
Nautical Twilight 5:35 AM CDT 8:55 PM CDT
Astronomical Twilight 5:02 AM CDT 9:28 PM CDT
Moon 3:08 AM CDT (8/21) 5:22 PM CDT (8/21)
Length of Visible Light 14h 14m
Length of Day
13h 20m
Waning Crescent, 13% of the Moon is Illuminated
Aug 21
Waning Crescent
Aug 25
New
Sep 2
First Quarter
Sep 8
Full
Sep 15
Last Quarter

Hourly Weather History & Observations

Time (CDT) Temp. Heat Index Dew Point Humidity Pressure Visibility Wind Dir Wind Speed Gust Speed Precip Events Conditions
12:15 AM 75.2 °F - 66.2 °F 73% 30.03 in 10.0 mi South 5.8 mph - N/A   Clear
12:35 AM 77.0 °F - 66.2 °F 69% 30.03 in 10.0 mi Calm Calm - N/A   Clear
12:55 AM 75.2 °F - 66.2 °F 73% 30.03 in 10.0 mi Calm Calm - N/A   Clear
1:15 AM 75.2 °F - 66.2 °F 73% 30.03 in 10.0 mi Calm Calm - N/A   Clear
1:35 AM 75.2 °F - 68.0 °F 78% 30.02 in 10.0 mi Calm Calm - N/A   Clear
1:55 AM 75.2 °F - 68.0 °F 78% 30.02 in 10.0 mi Calm Calm - N/A   Clear
2:15 AM 73.4 °F - 68.0 °F 83% 30.03 in 10.0 mi South 5.8 mph - N/A   Clear
2:35 AM 73.4 °F - 68.0 °F 83% 30.03 in 10.0 mi Calm Calm - N/A   Clear
2:55 AM 73.4 °F - 68.0 °F 83% 30.03 in 10.0 mi Calm Calm - N/A   Clear
3:15 AM 75.2 °F - 68.0 °F 78% 30.03 in 10.0 mi South 4.6 mph - N/A   Clear
3:35 AM 75.2 °F - 68.0 °F 78% 30.03 in 10.0 mi South 3.5 mph - N/A   Clear
3:55 AM 75.2 °F - 68.0 °F 78% 30.03 in 10.0 mi South 3.5 mph - N/A   Clear
4:15 AM 75.2 °F - 68.0 °F 78% 30.03 in 10.0 mi Calm Calm - N/A   Clear
4:35 AM 73.4 °F - 68.0 °F 83% 30.04 in 10.0 mi SSW 3.5 mph - N/A   Clear
4:55 AM 73.4 °F - 68.0 °F 83% 30.04 in 10.0 mi South 4.6 mph - N/A   Clear
5:15 AM 73.4 °F - 69.8 °F 88% 30.04 in 10.0 mi SSW 3.5 mph - N/A   Clear
5:35 AM 75.2 °F - 69.8 °F 83% 30.04 in 10.0 mi South 5.8 mph - N/A   Clear
5:55 AM 75.2 °F - 69.8 °F 83% 30.04 in 10.0 mi SSW 4.6 mph - N/A   Clear
6:15 AM 75.2 °F - 69.8 °F 83% 30.05 in 10.0 mi South 6.9 mph - N/A   Clear
6:35 AM 75.2 °F - 69.8 °F 83% 30.05 in 10.0 mi Calm Calm - N/A   Clear
6:50 AM 75.2 °F - 69.8 °F 83% 30.06 in 10.0 mi SSW 5.8 mph - N/A   Clear
7:55 AM 80.6 °F 83.9 °F 69.8 °F 70% 30.06 in 10.0 mi South 13.8 mph - N/A   Clear
8:45 AM 82.4 °F 87.2 °F 71.6 °F 70% 30.07 in 10.0 mi SSW 13.8 mph - N/A   Clear
9:45 AM 86.0 °F 91.8 °F 71.6 °F 62% 30.07 in 10.0 mi SW 10.4 mph 19.6 mph N/A   Clear
11:45 AM 93.2 °F 97.7 °F 68.0 °F 44% 30.08 in 10.0 mi SSW 8.1 mph - N/A   Partly Cloudy
12:45 PM 95.0 °F 98.5 °F 66.2 °F 39% 30.07 in 10.0 mi WSW 8.1 mph - N/A   Scattered Clouds
1:45 PM 95.0 °F 97.0 °F 64.4 °F 36% 30.06 in 10.0 mi South 5.8 mph - N/A   Scattered Clouds
2:45 PM 96.8 °F 99.0 °F 64.4 °F 34% 30.04 in 10.0 mi South 10.4 mph - N/A   Scattered Clouds
3:45 PM 98.6 °F 101.0 °F 64.4 °F 32% 30.02 in 10.0 mi SSW 8.1 mph - N/A   Scattered Clouds
4:52 PM 96.8 °F 99.0 °F 64.4 °F 34% 30.01 in 10.0 mi South 6.9 mph - N/A   Mostly Cloudy
5:47 PM 93.2 °F 94.9 °F 64.4 °F 38% 30.01 in 10.0 mi SSW 8.1 mph 16.1 mph N/A   Scattered Clouds
6:47 PM 91.4 °F 95.4 °F 68.0 °F 46% 30.01 in 10.0 mi South 8.1 mph - N/A   Partly Cloudy
7:46 PM 84.2 °F 87.3 °F 68.0 °F 58% 30.02 in 10.0 mi South 9.2 mph - N/A   Partly Cloudy
8:46 PM 80.6 °F 83.2 °F 68.0 °F 65% 30.03 in 10.0 mi South 8.1 mph - N/A   Partly Cloudy
9:15 PM 80.6 °F 83.2 °F 68.0 °F 65% 30.04 in 10.0 mi South 4.6 mph - N/A   Clear
9:35 PM 80.6 °F 83.2 °F 68.0 °F 65% 30.05 in 10.0 mi South 3.5 mph - N/A   Clear
9:55 PM 78.8 °F - 68.0 °F 69% 30.05 in 10.0 mi South 4.6 mph - N/A   Clear
10:15 PM 77.0 °F - 69.8 °F 78% 30.05 in 10.0 mi South 4.6 mph - N/A   Clear
10:35 PM 77.0 °F - 69.8 °F 78% 30.05 in 10.0 mi South 4.6 mph - N/A   Clear
10:55 PM 77.0 °F - 69.8 °F 78% 30.06 in 10.0 mi South 3.5 mph - N/A   Clear
11:15 PM 77.0 °F - 69.8 °F 78% 30.05 in 10.0 mi South 5.8 mph - N/A   Clear
11:35 PM 77.0 °F - 71.6 °F 83% 30.06 in 10.0 mi South 4.6 mph - N/A   Clear
11:55 PM 77.0 °F - 71.6 °F 83% 30.06 in 10.0 mi South 5.8 mph - N/A   Clear